• In Belarus
  • List of Countries
  • For 7 days
  • Water Temperature
  • Satellite Maps
  • Weather Map
  • Weather Widgets
  • user-avatar
    Login

    Hourly Weather Córdoba

    Today, 23 May, Wednesday

    Time Temperature Precipitation Wind Pressure Humidity
    00:00 +12°C° 0 mm 2 mps 728 mmHg 82%
    01:00 +12°C° 0 mm 2 mps 728 mmHg 83%
    02:00 +12°C° 0 mm 2 mps 728 mmHg 83%
    03:00 +10°C° 0 mm 2 mps 728 mmHg 83%
    04:00 +10°C° 0 mm 2 mps 728 mmHg 83%
    05:00 +10°C° 0 mm 2 mps 728 mmHg 83%
    06:00 +10°C° 0 mm 2 mps 728 mmHg 81%
    07:00 +12°C° 0 mm 2 mps 728 mmHg 80%
    08:00 +12°C° 0 mm 3 mps 729 mmHg 76%
    09:00 +14°C° 0 mm 3 mps 729 mmHg 71%
    10:00 +17°C° 0 mm 4 mps 729 mmHg 65%
    11:00 +19°C° 0 mm 4 mps 730 mmHg 60%
    12:00 +19°C° 0 mm 4 mps 729 mmHg 58%
    13:00 +20°C° 0 mm 4 mps 729 mmHg 57%
    14:00 +21°C° 0 mm 5 mps 729 mmHg 55%
    15:00 +20°C° 0 mm 4 mps 729 mmHg 59%
    16:00 +19°C° 0 mm 4 mps 728 mmHg 63%
    17:00 +18°C° 0 mm 3 mps 728 mmHg 67%
    18:00 +17°C° 0 mm 3 mps 728 mmHg 71%
    19:00 +14°C° 0 mm 3 mps 729 mmHg 75%
    20:00 +14°C° 0 mm 2 mps 729 mmHg 79%
    21:00 +14°C° 0 mm 2 mps 729 mmHg 80%
    22:00 +14°C° 0 mm 2 mps 729 mmHg 81%
    23:00 +13°C° 0 mm 2 mps 730 mmHg 82%

    Tomorrow, 24 May, Thursday

    Time Temperature Precipitation Wind Pressure Humidity
    00:00 +13°C° 0 mm 2 mps 730 mmHg 82%
    01:00 +13°C° 0 mm 2 mps 730 mmHg 83%
    02:00 +13°C° 0 mm 2 mps 730 mmHg 84%
    03:00 +12°C° 0 mm 2 mps 729 mmHg 84%
    04:00 +12°C° 0 mm 2 mps 729 mmHg 85%
    05:00 +12°C° 0 mm 2 mps 729 mmHg 86%
    06:00 +12°C° 0 mm 2 mps 729 mmHg 84%
    07:00 +12°C° 0 mm 2 mps 729 mmHg 83%
    08:00 +13°C° 0 mm 2 mps 730 mmHg 81%
    09:00 +15°C° 0 mm 2 mps 730 mmHg 73%
    10:00 +17°C° 0 mm 3 mps 730 mmHg 65%
    11:00 +19°C° 0 mm 3 mps 730 mmHg 57%
    12:00 +20°C° 0 mm 3 mps 730 mmHg 55%
    13:00 +20°C° 0 mm 4 mps 729 mmHg 53%
    14:00 +21°C° 0 mm 4 mps 729 mmHg 51%
    15:00 +20°C° 0 mm 4 mps 728 mmHg 55%
    16:00 +19°C° 0 mm 4 mps 728 mmHg 59%
    17:00 +18°C° 0 mm 4 mps 728 mmHg 64%
    18:00 +17°C° 0 mm 3 mps 728 mmHg 68%
    19:00 +14°C° 0 mm 3 mps 728 mmHg 72%
    20:00 +13°C° 0 mm 3 mps 728 mmHg 77%
    21:00 +14°C° 0 mm 2 mps 728 mmHg 78%
    22:00 +13°C° 0 mm 2 mps 728 mmHg 79%
    23:00 +13°C° 0 mm 2 mps 728 mmHg 79%

    Day after tomorrow, 25 May, Friday

    Time Temperature Precipitation Wind Pressure Humidity
    00:00 +13°C° 0 mm 2 mps 728 mmHg 80%
    01:00 +12°C° 0 mm 2 mps 728 mmHg 80%
    02:00 +12°C° 0 mm 2 mps 728 mmHg 80%
    03:00 +12°C° 0 mm 2 mps 728 mmHg 80%
    04:00 +12°C° 0 mm 2 mps 728 mmHg 80%
    05:00 +10°C° 0 mm 2 mps 727 mmHg 79%
    06:00 +12°C° 0 mm 2 mps 728 mmHg 78%
    07:00 +12°C° 0 mm 2 mps 728 mmHg 76%
    08:00 +12°C° 0 mm 2 mps 728 mmHg 74%
    09:00 +13°C° 0 mm 3 mps 728 mmHg 66%
    10:00 +17°C° 0 mm 3 mps 728 mmHg 59%
    11:00 +19°C° 0 mm 4 mps 729 mmHg 51%
    12:00 +20°C° 0 mm 4 mps 728 mmHg 49%
    13:00 +21°C° 0 mm 4 mps 727 mmHg 47%
    14:00 +21°C° 0 mm 5 mps 726 mmHg 46%
    15:00 +20°C° 0 mm 4 mps 726 mmHg 50%
    16:00 +19°C° 0 mm 4 mps 725 mmHg 55%
    17:00 +18°C° 0 mm 4 mps 725 mmHg 59%
    18:00 +17°C° 0 mm 3 mps 725 mmHg 63%
    19:00 +14°C° 0 mm 3 mps 725 mmHg 67%
    20:00 +13°C° 0 mm 3 mps 725 mmHg 71%
    21:00 +13°C° 0 mm 3 mps 725 mmHg 72%
    22:00 +12°C° 0 mm 3 mps 725 mmHg 72%
    23:00 +12°C° 0 mm 3 mps 725 mmHg 73%

    26 May, Saturday

    Time Temperature Precipitation Wind Pressure Humidity
    00:00 +12°C° 0 mm 3 mps 724 mmHg 72%
    01:00 +12°C° 0 mm 3 mps 724 mmHg 72%
    02:00 +11°C° 0 mm 4 mps 724 mmHg 72%
    03:00 +11°C° 0 mm 4 mps 723 mmHg 73%
    04:00 +11°C° 0 mm 4 mps 723 mmHg 73%
    05:00 +11°C° 0 mm 3 mps 723 mmHg 74%
    06:00 +11°C° 0 mm 3 mps 723 mmHg 73%
    07:00 +11°C° 0 mm 4 mps 723 mmHg 72%
    08:00 +12°C° 0 mm 4 mps 723 mmHg 71%
    09:00 +14°C° 0 mm 4 mps 724 mmHg 64%
    10:00 +17°C° 0 mm 5 mps 724 mmHg 57%
    11:00 +21°C° 0 mm 5 mps 724 mmHg 49%
    12:00 +22°C° 0 mm 5 mps 723 mmHg 47%
    13:00 +23°C° 0 mm 5 mps 723 mmHg 46%
    14:00 +25°C° 0 mm 5 mps 722 mmHg 44%
    15:00 +22°C° 0 mm 5 mps 722 mmHg 49%
    16:00 +21°C° 0 mm 4 mps 722 mmHg 54%
    17:00 +20°C° 0 mm 3 mps 722 mmHg 59%
    18:00 +19°C° 0 mm 3 mps 722 mmHg 64%
    19:00 +17°C° 0 mm 2 mps 723 mmHg 69%
    20:00 +16°C° 0 mm 2 mps 723 mmHg 74%
    21:00 +16°C° 0 mm 1 mps 724 mmHg 76%
    22:00 +15°C° 0 mm 1 mps 724 mmHg 78%
    23:00 +15°C° 0 mm 1 mps 725 mmHg 80%

    27 May, Sunday

    Time Temperature Precipitation Wind Pressure Humidity
    00:00 +15°C° 0 mm 1 mps 725 mmHg 81%
    01:00 +15°C° 0 mm 1 mps 725 mmHg 82%
    02:00 +14°C° 0 mm 1 mps 725 mmHg 82%
    03:00 +14°C° 0 mm 1 mps 725 mmHg 84%
    04:00 +14°C° 0 mm 1 mps 725 mmHg 85%
    05:00 +13°C° 0 mm 1 mps 725 mmHg 87%
    06:00 +14°C° 0 mm 2 mps 726 mmHg 87%
    07:00 +14°C° 0 mm 2 mps 726 mmHg 88%
    08:00 +14°C° 0 mm 2 mps 727 mmHg 88%
    09:00 +15°C° 0 mm 2 mps 727 mmHg 83%
    10:00 +17°C° 0 mm 2 mps 727 mmHg 78%
    11:00 +18°C° 0 mm 2 mps 728 mmHg 72%
    12:00 +19°C° 0 mm 2 mps 727 mmHg 71%
    13:00 +19°C° 0 mm 2 mps 726 mmHg 70%
    14:00 +20°C° 0 mm 2 mps 726 mmHg 69%
    15:00 +19°C° 0 mm 2 mps 725 mmHg 72%
    16:00 +19°C° 0 mm 2 mps 725 mmHg 76%
    17:00 +18°C° 0 mm 2 mps 725 mmHg 80%
    18:00 +18°C° 0 mm 2 mps 725 mmHg 83%
    19:00 +17°C° 0 mm 2 mps 725 mmHg 87%
    20:00 +16°C° 0 mm 1 mps 725 mmHg 91%
    21:00 +17°C° 0.1 mm 2 mps 725 mmHg 91%
    22:00 +17°C° 0.1 mm 2 mps 725 mmHg 91%
    23:00 +17°C° 0.1 mm 2 mps 725 mmHg 91%

    28 May, Monday

    Time Temperature Precipitation Wind Pressure Humidity
    00:00 +17°C° 0.1 mm 2 mps 725 mmHg 91%
    01:00 +17°C° 0.1 mm 2 mps 724 mmHg 92%
    02:00 +17°C° 0.1 mm 3 mps 724 mmHg 92%
    03:00 +17°C° 0.1 mm 3 mps 723 mmHg 93%
    04:00 +17°C° 0.1 mm 3 mps 723 mmHg 93%
    05:00 +17°C° 0.1 mm 3 mps 722 mmHg 93%
    06:00 +17°C° 0.1 mm 4 mps 722 mmHg 93%
    07:00 +18°C° 0.1 mm 4 mps 722 mmHg 93%
    08:00 +17°C° 0.1 mm 5 mps 722 mmHg 92%
    09:00 +19°C° 0 mm 6 mps 722 mmHg 87%
    10:00 +21°C° 0 mm 7 mps 721 mmHg 82%
    11:00 +22°C° 0 mm 8 mps 721 mmHg 77%
    12:00 +23°C° 0 mm 8 mps 720 mmHg 75%
    13:00 +23°C° 0 mm 8 mps 719 mmHg 74%
    14:00 +24°C° 0 mm 8 mps 719 mmHg 72%
    15:00 +24°C° 0 mm 7 mps 718 mmHg 74%
    16:00 +23°C° 0 mm 6 mps 718 mmHg 75%
    17:00 +23°C° 0 mm 6 mps 717 mmHg 77%
    18:00 +23°C° 0 mm 6 mps 717 mmHg 78%
    19:00 +23°C° 0 mm 6 mps 717 mmHg 79%
    20:00 +22°C° 0 mm 5 mps 718 mmHg 80%
    21:00 +22°C° 0 mm 5 mps 718 mmHg 81%
    22:00 +22°C° 0 mm 5 mps 718 mmHg 81%
    23:00 +22°C° 0 mm 5 mps 718 mmHg 81%
    Show more